Regional Weather Roundup
Issued by NWS State College, PA

Home | Current Version | Previous Version | Text Only | Print | Product List | Glossary On
Versions: 1 2 3 4 5 6 7 8 9 10 11 12 13 14 15 16 17 18 19 20 21 22 23 24 25 26 27 28 29 30 31 32 33 34 35 36 37 38 39 40 41 42 43 44 45 46 47 48 49 50
000
ASUS41 KCTP 291910
RWRCTP

REGIONAL WEATHER ROUNDUP
NATIONAL WEATHER SERVICE STATE COLLEGE PA
300 PM EDT SAT AUG 29 2015

Note: "fair" indicates few or no clouds below 12,000 feet with no
significant weather and/or obstructions to visibility.

* = STATION THAT DOES NOT REPORT PRECIPITATION /E.G. RAIN...SNOW...ETC/
    THUNDER OR FOG.

PAZ002>004-007>009-013>016-020>023-029>032-292000-
WESTERN PENNSYLVANIA

CITY           SKY/WX    TMP DP  RH WIND       PRES   REMARKS
ERIE           MOSUNNY   78  60  53 NW7       30.12F
MEADVILLE      MOSUNNY   79  56  45 CALM      30.15F
FRANKLIN*      MOSUNNY   79  57  47 SW10      30.17F
NEW CASTLE     FAIR      83  60  45 CALM      30.14F
BEAVER COUNTY  SUNNY     82  59  44 CALM      30.15F
BUTLER*        MOSUNNY   82  59  44 W7        30.17F
PITTSBURGH INT MOSUNNY   82  58  43 W3        30.14F
PITTSBURGH     MOSUNNY   81  51  35 W13       30.14F
INDIANA*       MOSUNNY   81  59  47 NW10      30.19F
LATROBE        PTSUNNY   82  57  42 W9        30.16F
WASHINGTON CO* MOSUNNY   82  61  47 SW3       30.16F
$$

PAZ004>006-010>012-017>019-024>028-033>037-041-042-045-046-049>053-292000-
CENTRAL PENNSYLVANIA

CITY           SKY/WX    TMP DP  RH WIND       PRES   REMARKS
BRADFORD       MOSUNNY   77  51  40 SW7       30.18F
DUBOIS         MOSUNNY   78  52  40 SW5       30.18S
CLEARFIELD     SUNNY     81  51  35 SW8       30.17F
JOHNSTOWN      MOSUNNY   77  54  44 W9        30.21F
ALTOONA        MOSUNNY   82  53  36 CALM      30.17F
STATE COLLEGE  MOSUNNY   79  59  50 SW8       30.15F
WILLIAMSPORT   MOSUNNY   79  62  56 S5        30.11F
SELINSGROVE    PTSUNNY   83  62  49 VRB3      30.13F
FT INDIANTOWN  MOSUNNY   83  63  51 VRB5      30.13F
CAPITAL CITY   MOSUNNY   82  61  48 E3        30.13F
HARRISBURG     MOSUNNY   84  62  47 CALM      30.12F
YORK           SUNNY     83  64  52 SW5       30.13F
$$

PAZ038>040-043-044-047-048-054-055-060>062-067>071-292000-
EASTERN PENNSYLVANIA

CITY           SKY/WX    TMP DP  RH WIND       PRES   REMARKS
SCRANTON       PTSUNNY   82  59  45 VRB5      30.13F
MOUNT POCONO   MOSUNNY   75  60  59 S7        30.19F
ALLENTOWN      MOSUNNY   84  61  45 CALM      30.14F
QUAKERTOWN*    MOCLDY    82  63  51 S8        30.16F
READING        MOSUNNY   84  63  49 SW9       30.12F
LANCASTER      PTSUNNY   83  63  50 VRB6      30.13F
COATESVILLE    PTCLDY    81  63  54 SE6       30.17F
POTTSTOWN      PTSUNNY   82  62  50 S7        30.16F
BLUE BELL      MOSUNNY   84  63  48 S8        30.14F
DOYLESTOWN     PTSUNNY   82  59  45 SW6       30.14F
WILLOW GROVE   NOT AVBL
NORTH PHILA    MOSUNNY   86  57  37 SW6       30.15F
PHILADELPHIA   MOSUNNY   86  58  38 SW7       30.14F
$$


USA.gov is the U.S. government's official web portal to all federal, state and local government web resources and services.